Wainwright, AK

3:37 AM AKDT on March 28, 2017 (GMT -0800)
Wainwright

Weather History for PAWI - August, 2013

Change the Weather History Date:

Saturday, August 10, 2013

  Actual Average (PABR) Record (PABR)
Temperature  
Mean Temperature 48 °F -  
Max Temperature 57 °F 42 °F 68 °F (1994)
Min Temperature 41 °F 33 °F 25 °F (1982)
Degree Days  
Heating Degree Days 17    
Moisture  
Dew Point 43 °F    
Average Humidity 89    
Maximum Humidity 93    
Minimum Humidity 80    
Precipitation  
Precipitation 0.16 in - - ()
Sea Level Pressure  
Sea Level Pressure 29.69 in    
Wind  
Wind Speed 9 mph (ENE)    
Max Wind Speed 12 mph    
Max Gust Speed -    
Visibility 7 miles    
Events Fog , Rain    
Averages and records for this station are not official NWS values.
T = Trace of Precipitation, MM = Missing Value Source: NWS Daily Summary

Daily Weather History Graph

Daily Weather History Graph

Search for Another Location

Airport or City:

Trip Planner

Search our weather history database for the weather conditions in past years. The results will help you decide how hot, cold, wet, or windy it might be!

Date:

Astronomy

Aug. 10, 2013 Rise Set
Actual Time 5:00 AM AKDT 12:24 AM AKDT
Civil Twilight Sun does not rise Sun does not rise
Nautical Twilight Sun does not rise Sun does not rise
Astronomical Twilight Sun does not rise Sun does not rise
Moon 12:23 PM AKDT (8/10) 10:37 PM AKDT (8/10)
Length of Visible Light 24h 00m
Length of Day
19h 23m
Waxing Crescent, 15% of the Moon is Illuminated
Aug 10
Waxing Crescent
Aug 14
First Quarter
Aug 20
Full
Aug 28
Last Quarter
Sep 5
New

Hourly Weather History & Observations

Time (AKDT) Temp. Windchill Dew Point Humidity Pressure Visibility Wind Dir Wind Speed Gust Speed Precip Events Conditions
12:53 AM 42.1 °F 36.1 °F 39.0 °F 89% 29.65 in 6.0 mi NNE 10.4 mph - 0.05 in Rain Light Rain
1:15 AM 42.8 °F 37.0 °F 39.2 °F 87% 29.64 in 10.0 mi NNE 10.4 mph - 0.00 in Rain Light Rain
1:41 AM 41.0 °F 34.3 °F 39.2 °F 93% 29.64 in 7.0 mi NNE 11.5 mph - 0.00 in Rain Light Rain
1:53 AM 41.0 °F 34.7 °F 39.0 °F 93% 29.65 in 6.0 mi NE 10.4 mph - 0.00 in Rain Light Rain
2:39 AM 41.0 °F 34.7 °F 39.2 °F 93% 29.64 in 7.0 mi NE 10.4 mph - 0.02 in Rain Light Rain
2:53 AM 41.0 °F 35.2 °F 37.9 °F 89% 29.64 in 8.0 mi NE 9.2 mph - 0.02 in Rain Light Rain
3:00 AM 41.0 °F 35.8 °F 39.2 °F 93% 29.64 in 8.0 mi ENE 8.1 mph - 0.00 in Rain Light Rain
3:53 AM 41.0 °F 35.8 °F 39.0 °F 93% 29.65 in 7.0 mi ENE 8.1 mph - 0.00 in Rain Light Rain
4:53 AM 41.0 °F 34.7 °F 37.9 °F 89% 29.65 in 9.0 mi NE 10.4 mph - 0.04 in Rain Light Rain
5:53 AM 41.0 °F 35.8 °F 37.9 °F 89% 29.65 in 8.0 mi NE 8.1 mph - 0.04 in Rain Light Rain
6:53 AM 41.0 °F 34.7 °F 37.9 °F 89% 29.65 in 10.0 mi ENE 10.4 mph - 0.00 in Rain Light Rain
7:12 AM 41.0 °F 34.7 °F 39.2 °F 93% 29.65 in 10.0 mi ENE 10.4 mph - 0.00 in Rain Light Rain
7:23 AM 41.0 °F 35.2 °F 39.2 °F 93% 29.65 in 10.0 mi ENE 9.2 mph - 0.00 in   Overcast
7:31 AM 41.0 °F 35.2 °F 39.2 °F 93% 29.65 in 9.0 mi ENE 9.2 mph - 0.00 in   Overcast
7:44 AM 41.0 °F 35.8 °F 39.2 °F 93% 29.65 in 1.8 mi NE 8.1 mph - 0.00 in   Overcast
7:53 AM 41.0 °F 35.2 °F 39.0 °F 93% 29.65 in 1.5 mi ENE 9.2 mph - 0.00 in   Overcast
8:10 AM 41.0 °F 35.8 °F 39.2 °F 93% 29.65 in 1.0 mi NE 8.1 mph - N/A   Overcast
8:53 AM 41.0 °F 35.2 °F 39.0 °F 93% 29.66 in 1.8 mi NE 9.2 mph - N/A   Overcast
9:03 AM 41.0 °F 35.8 °F 39.2 °F 93% 29.66 in 2.0 mi NE 8.1 mph - N/A   Overcast
9:15 AM 42.8 °F 37.0 °F 39.2 °F 87% 29.66 in 1.5 mi ENE 10.4 mph - N/A   Overcast
9:34 AM 42.8 °F 37.5 °F 39.2 °F 87% 29.66 in 0.5 mi ENE 9.2 mph - N/A Fog Fog
9:53 AM 43.0 °F 37.7 °F 41.0 °F 93% 29.67 in 0.2 mi ENE 9.2 mph - N/A Fog Fog
10:53 AM 44.1 °F 38.6 °F 42.1 °F 93% 29.68 in 0.5 mi ENE 10.4 mph - N/A Fog Fog
11:29 AM 44.6 °F 40.2 °F 42.8 °F 93% 29.68 in 1.2 mi ENE 8.1 mph - N/A   Overcast
11:43 AM 44.6 °F 39.7 °F 42.8 °F 93% 29.68 in 3.0 mi East 9.2 mph - N/A   Overcast
11:53 AM 46.0 °F 41.0 °F 44.1 °F 93% 29.69 in 5.0 mi ENE 10.4 mph - N/A   Overcast
12:53 PM 48.0 °F - 45.0 °F 89% 29.70 in 10.0 mi East 9.2 mph - N/A   Overcast
1:22 PM 50.0 °F - 46.4 °F 87% 29.70 in 10.0 mi East 6.9 mph - N/A   Overcast
1:53 PM 50.0 °F - 46.9 °F 89% 29.71 in 10.0 mi ENE 5.8 mph - N/A   Overcast
2:53 PM 51.1 °F - 48.9 °F 92% 29.71 in 9.0 mi East 6.9 mph - N/A   Overcast
3:53 PM 53.1 °F - 48.9 °F 86% 29.72 in 10.0 mi ESE 6.9 mph - N/A   Overcast
4:15 PM 53.6 °F - 50.0 °F 88% 29.72 in 10.0 mi ESE 5.8 mph - N/A   Mostly Cloudy
4:23 PM 53.6 °F - 50.0 °F 88% 29.72 in 10.0 mi ESE 6.9 mph - N/A   Scattered Clouds
4:53 PM 55.9 °F - 50.0 °F 80% 29.72 in 10.0 mi NE 6.9 mph - N/A   Mostly Cloudy
5:22 PM 53.6 °F - 48.2 °F 82% 29.72 in 10.0 mi NE 9.2 mph - N/A   Mostly Cloudy
5:30 PM 53.6 °F - 48.2 °F 82% 29.72 in 10.0 mi NE 9.2 mph - N/A   Scattered Clouds
5:53 PM 55.0 °F - 48.9 °F 80% 29.72 in 10.0 mi ENE 9.2 mph - N/A   Clear
6:53 PM 55.0 °F - 48.9 °F 80% 29.73 in 10.0 mi NE 11.5 mph - N/A   Clear
7:53 PM 55.0 °F - 48.9 °F 80% 29.73 in 10.0 mi NE 10.4 mph - N/A   Scattered Clouds
8:53 PM 52.0 °F - 48.0 °F 86% 29.74 in 10.0 mi NE 10.4 mph - N/A   Overcast
9:53 PM 50.0 °F - 46.9 °F 89% 29.75 in 10.0 mi NE 10.4 mph - N/A   Overcast
10:28 PM 48.2 °F - 44.6 °F 87% 29.77 in 7.0 mi WNW 6.9 mph - 0.01 in Rain Rain
10:53 PM 48.9 °F - 46.9 °F 93% 29.77 in 10.0 mi NNE 5.8 mph - 0.01 in   Overcast
11:39 PM 44.6 °F 40.2 °F 42.8 °F 93% 29.77 in 2.5 mi North 8.1 mph - N/A   Overcast
11:53 PM 46.0 °F 41.4 °F 44.1 °F 93% 29.78 in 4.0 mi NE 9.2 mph - N/A   Overcast